RH
74 69 63 58 53 49 45 42 39 37 34 33 32 31 29 28 27 26 27 27 27 28 29 32 34 35 37 39 41 43 47 48 49 53 56 57 58 57 54 54 61 70 77 78 76 74 72 67 62 57 51 46 45 47 43 47 74 100 102 100 104 103 104 107 103 101 103 103 101 95 90 89 86 87 95 98 98 101 102 102 105 108 107 105 106 106 104
64 58 53 49 45 43 41 39 38 36 35 33 31 29 28 26 24 23 23 23 23 22 22 24 26 29 31 34 36 38 41 43 45 48 53 57 61 61 59 57 60 67 76 81 80 77 75 73 68 61 56 51 46 47 50 44 50 73 92 97 100 100 98 101 104 104 105 106 105 102 98 96 94 94 99 105 107 107 106 106 107 107 106 107 107 105 105
55 52 49 46 44 42 41 40 39 39 38 36 34 31 29 27 26 24 22 22 22 21 20 20 20 22 25 27 31 35 37 40 41 43 48 54 59 62 63 61 61 65 72 79 82 81 77 74 72 67 61 57 51 48 52 52 44 50 72 92 101 99 95 99 103 103 103 103 103 103 102 101 104 107 106 107 108 108 108 108 107 103 101 104 108 106 106
52 51 49 47 45 44 43 43 42 42 40 38 36 32 30 30 28 26 23 21 21 20 20 20 19 20 21 22 25 29 33 37 39 40 44 49 55 61 63 64 63 63 66 72 79 82 81 76 73 72 67 63 59 53 50 55 53 46 52 73 92 99 100 102 104 102 101 101 101 102 101 100 102 104 103 102 99 100 105 107 107 104 100 103 107 106 107
52 51 49 48 47 46 45 44 43 42 41 39 36 33 30 29 28 27 24 22 20 20 19 19 19 20 20 21 22 24 28 32 36 38 41 45 50 56 61 63 64 63 64 67 73 79 83 80 75 73 72 67 65 61 54 53 58 56 50 53 69 89 101 104 104 103 101 100 101 102 102 101 101 100 100 101 98 99 104 107 106 105 104 107 107 104 106
52 52 51 50 49 47 45 43 41 40 39 37 35 32 29 27 26 25 24 22 20 19 18 18 18 19 19 20 21 22 24 27 31 35 38 41 45 51 55 59 61 63 63 65 69 75 82 84 80 77 75 73 69 68 64 58 58 63 62 53 55 74 94 101 101 101 101 101 101 102 102 101 101 101 100 101 101 101 102 104 104 103 105 109 106 103 105
54 53 52 50 49 47 45 43 41 40 39 37 35 33 30 27 24 23 21 20 17 16 16 17 17 17 18 20 21 22 23 24 27 31 35 39 42 46 50 55 58 61 62 63 66 71 77 83 86 85 82 77 74 72 71 67 61 63 68 65 58 61 72 84 90 93 97 97 94 96 102 103 101 101 101 100 101 100 97 96 97 99 101 103 102 101 103
55 52 51 50 48 47 46 44 44 42 40 38 36 34 31 28 26 23 19 16 14 13 13 15 15 16 18 20 21 23 24 24 26 28 31 35 39 43 46 50 54 57 60 62 64 67 73 78 84 89 89 84 79 76 75 75 72 66 64 68 69 63 58 63 72 82 90 91 82 80 91 100 100 100 100 101 102 102 98 94 94 97 99 100 101 102 101
53 51 51 50 48 48 47 46 46 45 43 40 37 35 32 30 27 22 17 14 13 13 13 14 15 15 17 19 21 24 25 27 28 29 30 33 37 41 45 47 51 54 57 62 63 65 70 75 79 86 92 92 89 85 80 79 80 75 68 69 75 75 67 58 58 64 72 76 70 65 75 88 93 95 96 98 98 98 98 98 99 101 103 103 103 102 101
52 51 50 49 48 47 47 47 46 46 46 43 39 36 33 31 28 22 16 15 16 16 16 15 15 15 16 18 20 23 25 27 29 30 32 34 36 39 43 46 49 51 54 59 62 63 67 72 77 82 90 96 99 99 94 87 84 84 81 77 76 78 76 71 65 60 57 59 59 56 55 61 70 81 90 92 90 88 88 92 95 96 98 100 101 100 100
51 50 49 48 47 47 47 48 47 46 47 45 41 38 35 33 31 23 17 18 20 19 19 18 17 17 17 18 20 23 25 27 29 30 31 33 35 38 41 44 47 50 52 55 58 61 63 67 72 78 84 92 99 106 107 101 97 96 96 94 87 81 81 82 81 77 69 61 57 53 47 44 50 63 72 77 80 79 79 84 88 90 90 92 95 97 97
50 49 49 49 49 50 50 49 48 47 47 46 44 42 38 35 33 27 20 20 23 23 22 21 21 20 19 19 21 23 26 28 30 31 32 33 35 36 39 41 44 46 49 51 54 58 60 62 69 76 82 89 98 107 110 109 109 109 108 108 103 95 89 84 84 86 83 76 70 64 58 54 54 56 56 60 66 69 71 74 79 86 93 96 99 103 104
50 49 50 52 53 54 53 52 51 50 49 48 46 43 40 37 36 32 25 22 24 26 25 24 24 24 23 22 23 25 28 30 32 34 34 34 34 36 38 41 43 44 46 49 51 54 56 59 65 73 80 87 95 103 106 107 110 112 111 108 105 103 98 91 86 84 83 84 88 86 83 79 74 67 62 60 60 61 65 69 71 77 86 92 95 99 104
51 51 53 55 55 55 54 54 53 53 52 50 47 46 44 42 40 38 33 28 27 27 28 27 26 26 26 26 26 27 29 32 35 38 39 39 37 37 38 39 40 42 44 47 49 51 54 57 61 67 74 82 89 97 103 105 107 109 107 105 104 105 106 104 102 97 91 90 93 93 96 99 96 92 89 83 76 70 68 68 69 70 74 81 85 87 89
53 54 55 54 53 53 53 53 54 55 54 54 53 50 48 46 43 43 42 38 33 30 29 30 30 29 29 29 29 29 30 32 35 38 42 43 43 43 42 43 44 45 46 47 48 50 52 55 58 62 67 73 79 88 99 105 107 106 104 103 103 103 105 108 108 106 105 104 100 96 98 102 102 103 104 100 96 91 84 79 75 71 68 69 72 74 76
55 55 54 53 53 53 54 54 56 56 55 57 57 55 52 50 47 46 45 44 42 38 34 33 32 32 32 32 32 32 32 33 34 36 38 39 41 43 44 47 52 55 56 56 56 55 54 55 56 58 61 65 68 75 86 98 106 107 104 104 104 102 103 105 105 104 105 107 108 107 106 105 104 104 103 101 99 96 95 92 88 85 84 80 75 70 67
56 55 53 54 55 55 56 57 59 61 60 59 59 58 57 55 52 50 48 48 48 47 44 41 38 36 35 34 34 34 34 34 35 35 35 35 36 37 37 40 45 49 53 55 58 59 60 60 60 60 60 63 65 67 74 84 96 104 106 106 105 103 104 104 103 102 103 103 104 105 107 108 108 106 103 100 97 93 90 86 86 92 99 99 95 87 79
57 55 54 55 57 57 58 61 63 65 65 63 62 63 63 61 58 56 55 53 52 51 50 49 47 44 42 40 38 37 36 36 36 36 36 36 36 35 35 35 37 39 41 43 46 50 53 55 58 60 61 63 65 66 68 72 81 92 100 104 105 104 105 104 103 102 104 104 102 102 103 104 107 109 106 100 96 93 87 80 80 89 95 95 97 99 97
56 55 56 58 60 61 62 64 66 67 68 69 69 68 68 67 66 64 62 60 58 56 55 55 53 52 51 48 46 43 41 39 38 37 37 37 37 37 36 36 36 36 37 37 37 38 40 42 45 48 51 54 57 61 64 66 70 76 85 92 98 100 102 104 105 104 104 105 105 104 103 102 104 108 110 107 103 99 93 88 89 94 96 94 95 98 101
55 55 58 61 64 66 67 69 70 71 71 72 72 72 70 69 69 68 66 63 62 61 60 59 58 58 57 55 54 52 50 47 44 41 40 38 38 38 38 37 37 38 37 38 38 37 36 37 38 39 41 43 44 47 50 54 58 62 67 74 80 86 90 95 98 100 102 105 105 103 102 101 103 108 111 112 110 106 102 100 98 98 100 101 100 99 99
56 58 61 65 68 68 70 73 74 74 74 73 73 73 72 70 69 68 66 65 64 64 63 62 61 61 60 59 58 57 56 55 53 50 48 45 42 40 39 38 38 38 38 38 39 38 37 37 37 37 38 39 40 41 42 43 45 48 52 55 59 64 69 73 76 82 88 93 94 94 95 97 99 102 103 102 100 99 99 98 96 96 98 101 102 101 99
59 61 64 67 69 71 75 79 79 77 76 74 74 74 74 73 71 69 67 66 65 64 63 63 62 61 61 60 59 58 57 56 56 55 54 52 49 46 44 41 39 38 38 38 38 38 38 37 37 37 37 38 39 41 42 42 43 44 46 48 49 51 53 54 56 59 64 67 69 72 77 80 82 84 85 84 83 84 85 86 87 87 89 91 95 97 97
61 63 65 68 70 74 81 86 86 82 78 75 73 73 74 74 73 71 69 67 66 64 62 62 62 61 61 60 59 59 58 57 56 55 53 53 52 50 49 47 44 42 40 39 38 37 36 36 36 36 36 36 37 38 39 41 42 44 46 47 48 48 49 51 51 51 52 54 54 56 59 63 65 67 68 69 70 71 72 74 76 77 78 81 84 87 89
63 64 67 70 73 79 85 89 87 82 78 75 73 72 72 74 75 74 72 70 69 67 64 63 62 62 61 61 60 60 59 59 57 55 53 51 50 49 48 48 47 46 44 42 40 39 37 36 35 34 34 34 35 35 37 37 39 41 44 46 47 48 49 50 51 50 51 52 52 53 53 54 56 57 59 59 60 61 62 64 66 67 68 70 71 73 76
65 67 71 75 79 85 89 88 84 79 76 74 72 72 74 75 76 76 74 73 72 72 71 68 66 65 63 63 62 62 62 61 60 59 57 54 51 49 47 46 46 46 45 44 43 42 41 39 37 36 34 33 32 33 33 34 35 37 39 41 44 46 47 49 49 50 50 50 50 51 52 52 53 54 55 56 56 57 57 57 58 58 58 59 60 61 62
68 68 73 78 82 85 87 86 83 80 76 73 72 73 75 78 79 79 78 77 76 77 77 74 71 69 68 67 67 66 65 64 62 61 59 57 54 52 49 46 44 43 43 43 42 42 42 41 40 40 38 36 35 33 32 31 31 32 34 36 38 40 42 44 45 46 47 47 47 47 47 48 48 49 50 51 51 52 53 53 54 54 55 55 56 56 57
70 69 73 77 78 80 82 84 83 79 76 76 76 74 74 76 79 80 81 82 82 81 81 79 76 74 73 72 70 69 67 65 63 61 58 56 54 52 51 49 46 43 41 40 40 40 40 40 40 40 40 40 39 38 36 34 31 30 29 30 31 33 35 37 38 40 42 43 44 44 45 45 46 46 46 46 47 48 49 49 50 51 52 53 54 54 55
75 75 75 77 78 78 80 80 79 78 80 85 86 83 78 76 77 80 82 83 84 84 83 80 78 77 76 75 73 70 68 67 65 63 60 56 53 51 50 49 47 46 43 41 38 38 38 38 39 39 39 39 40 41 41 40 38 35 32 29 28 28 29 30 31 33 35 37 39 40 42 44 45 45 46 46 46 46 46 46 47 47 46 47 48 48 49
80 81 80 80 81 81 80 79 78 80 84 89 93 91 85 79 78 79 81 83 85 87 85 81 79 78 77 76 75 72 69 68 66 64 60 57 53 51 50 48 47 46 45 43 40 38 37 37 37 38 39 39 39 40 39 39 39 39 38 36 34 31 29 28 28 28 29 30 32 33 35 37 38 40 41 41 41 42 43 43 43 43 43 43 43 43 43
84 82 81 82 83 82 83 85 84 82 82 86 91 91 86 82 80 80 80 83 86 87 85 82 80 79 77 76 76 74 71 68 66 64 61 57 54 50 48 47 46 45 45 44 41 39 38 37 37 37 37 38 40 40 40 39 38 38 38 38 38 38 36 34 31 29 28 27 27 27 28 29 30 31 32 33 34 35 37 38 38 39 39 38 38 38 37
86 84 80 81 81 84 90 92 86 81 82 86 89 88 84 83 84 82 81 84 85 86 85 84 82 80 78 77 76 76 73 70 67 65 63 59 55 52 48 46 45 44 44 43 41 40 38 37 37 37 37 37 38 39 40 41 40 38 37 36 37 38 39 39 38 36 34 32 30 29 27 27 27 27 27 28 29 29 30 31 31 32 32 32 33 33 33
90 90 83 80 82 89 95 91 80 78 83 87 87 86 84 85 85 83 82 84 85 86 86 86 85 83 80 78 77 75 74 72 69 67 65 61 58 54 50 46 44 43 43 42 40 39 37 36 37 37 38 38 39 40 40 42 42 40 39 38 37 36 36 36 37 38 38 37 36 35 34 32 31 30 29 28 28 27 27 27 27 27 27 28 28 28 28
93 93 87 85 88 92 91 83 76 78 83 85 85 86 88 89 87 84 84 86 87 88 89 89 89 86 83 80 78 76 75 73 70 69 67 64 60 56 51 47 44 42 43 42 40 38 37 35 36 37 38 39 40 41 43 43 43 42 42 41 39 37 36 35 35 35 36 36 37 38 38 37 36 36 35 34 33 31 29 28 28 27 27 26 26 26 25
94 92 89 91 92 89 83 78 76 77 80 82 85 89 93 93 90 88 88 89 90 92 93 93 93 91 87 83 80 78 75 72 69 68 68 66 62 56 51 47 43 41 42 42 40 39 38 37 37 37 37 38 40 42 45 45 44 43 42 40 39 38 37 36 35 34 34 34 35 36 36 36 37 38 38 38 38 36 35 34 33 31 31 30 29 28 27
93 91 90 90 86 81 78 76 74 74 77 81 85 91 97 99 97 93 90 89 90 93 95 96 96 95 92 88 84 81 76 71 67 66 66 65 61 55 50 46 43 41 41 40 40 40 41 40 40 39 38 38 40 42 44 44 42 40 38 36 36 36 36 36 35 34 34 34 34 34 34 34 35 36 36 37 38 38 38 38 38 37 36 35 34 34 32
98 94 89 86 82 80 79 77 74 74 76 78 84 92 99 102 100 96 91 87 88 92 96 98 98 98 96 93 88 84 78 73 69 66 65 65 62 55 48 43 41 40 39 39 40 40 41 42 43 42 41 42 43 44 44 43 41 39 38 37 35 35 35 35 34 34 34 34 34 33 33 32 32 33 33 34 35 36 36 37 37 37 38 38 38 38 37
102 96 90 87 85 84 83 83 81 78 75 76 82 91 97 99 100 96 90 86 88 91 95 99 99 99 98 96 91 86 80 75 71 67 63 63 62 56 47 42 39 38 37 37 38 40 41 42 44 44 44 44 45 45 45 45 44 42 40 39 38 37 37 36 35 35 35 36 35 34 33 32 31 31 31 30 31 32 33 34 35 35 36 36 37 38 38
104 101 98 96 92 86 86 90 91 84 75 75 82 90 94 97 98 94 88 86 89 92 95 98 99 99 98 95 90 86 82 77 72 66 61 57 56 54 47 41 37 36 35 35 37 39 39 41 44 46 46 46 45 44 44 45 45 45 43 41 39 38 37 36 36 36 37 38 37 35 34 32 31 30 29 29 29 29 30 31 32 33 34 35 36 36 36
101 103 103 102 97 90 90 97 98 88 76 76 83 89 92 94 94 91 88 88 90 92 94 97 99 98 96 92 88 86 83 78 73 67 60 53 51 50 46 39 36 35 35 34 36 37 38 40 44 47 49 50 48 45 44 44 44 43 42 41 39 37 35 35 35 36 37 38 38 37 35 34 32 30 29 28 28 28 29 29 30 31 32 33 34 34 34
96 99 102 103 99 93 93 101 102 90 78 78 84 88 90 91 91 91 91 90 90 92 95 97 97 94 91 90 90 88 84 80 74 68 61 52 47 46 44 39 36 34 34 35 35 35 35 39 43 47 51 54 53 50 48 47 45 43 40 38 36 34 33 32 32 33 35 35 35 35 34 33 32 30 29 28 28 28 28 28 28 29 31 32 33 33 32
98 100 101 101 100 95 97 104 104 91 80 79 82 84 87 91 92 92 92 91 92 95 96 96 96 94 92 92 93 92 87 82 76 70 63 53 45 43 41 39 37 36 35 35 35 34 34 37 41 47 51 54 55 53 51 49 47 44 41 38 35 33 32 31 31 31 32 32 31 31 31 31 30 30 29 29 28 28 28 28 28 29 30 31 32 32 32
104 103 101 101 102 100 102 107 104 90 80 79 80 83 88 91 91 91 92 91 93 96 95 94 96 97 96 95 94 93 89 83 77 73 66 55 46 40 37 36 36 38 38 37 36 34 33 35 41 48 53 53 52 52 51 49 47 45 42 39 36 34 32 32 32 32 31 31 30 29 29 28 28 28 28 28 28 28 28 28 28 28 29 30 31 31 32
106 103 100 100 103 105 107 109 102 87 78 78 81 85 90 91 90 91 91 91 92 95 96 97 100 100 97 95 94 92 88 83 78 75 70 59 48 42 38 34 34 37 39 40 38 36 35 36 41 49 55 54 50 50 50 48 47 45 42 40 37 34 33 33 33 33 32 31 30 29 28 27 27 27 27 27 27 27 27 27 27 28 29 30 30 31 32
107 102 99 101 104 107 110 109 98 83 77 79 83 88 92 92 90 91 91 91 93 97 99 101 102 100 95 92 92 91 88 82 77 74 70 60 48 42 39 36 34 35 39 41 39 37 37 39 43 49 53 52 49 48 49 48 46 44 41 38 34 32 31 32 33 33 33 31 30 30 29 28 27 26 25 25 26 26 27 27 27 27 28 29 30 31 32
106 102 100 102 105 109 112 106 91 81 79 82 86 92 95 92 90 91 92 92 96 100 102 103 102 97 91 89 89 89 86 81 74 70 66 59 50 43 39 37 34 34 37 41 41 38 37 41 46 50 51 50 49 49 48 47 45 43 40 35 32 29 29 30 32 33 33 31 30 30 30 29 29 28 26 25 25 25 26 26 26 27 28 29 29 30 31
106 103 102 102 105 111 110 99 85 81 84 87 90 95 96 92 90 92 93 95 99 104 106 105 102 95 89 87 88 88 85 77 70 66 63 60 55 49 42 37 34 33 35 40 43 40 38 39 45 49 51 51 50 49 47 45 43 40 37 33 30 28 27 28 31 33 33 31 29 29 28 29 29 30 28 27 25 24 24 24 25 26 27 28 28 29 30
110 106 102 103 108 111 103 90 84 87 90 91 94 97 96 93 92 92 94 98 104 108 109 106 100 93 87 86 87 86 82 74 68 65 64 62 59 54 46 40 35 33 32 37 42 43 40 39 40 43 47 50 50 47 44 42 40 37 34 31 29 27 27 28 30 33 35 33 31 29 28 27 27 28 29 29 28 27 25 24 24 24 26 26 27 28 29
113 107 103 106 110 105 93 86 89 95 95 93 96 97 96 94 94 94 96 102 108 109 108 104 98 92 87 86 85 84 81 76 73 70 66 62 59 55 50 44 40 35 31 32 36 40 42 41 39 39 41 45 47 45 41 39 37 35 32 30 28 27 26 27 30 34 37 36 33 32 30 28 27 26 26 27 29 30 29 27 25 24 25 25 27 28 28
110 106 106 108 104 94 86 89 96 99 97 96 97 96 94 95 95 96 100 106 110 109 106 101 95 90 87 86 87 87 85 83 80 75 67 60 57 54 49 45 41 38 34 32 31 34 37 40 41 40 39 40 42 42 40 37 36 34 32 30 28 27 27 27 30 33 37 38 37 36 34 33 31 28 25 24 26 29 31 31 28 26 25 25 26 27 28
106 105 107 104 94 86 88 96 101 101 100 98 96 95 95 96 96 98 102 106 107 107 104 99 93 91 89 88 90 92 91 87 83 76 66 59 56 53 48 44 39 36 34 33 32 33 35 37 39 40 39 38 39 39 38 37 35 33 31 30 29 28 28 28 30 33 36 39 40 39 37 36 35 33 30 26 24 24 27 29 30 29 27 26 25 26 27
107 106 102 94 86 88 95 101 104 104 101 96 93 95 98 99 99 103 108 109 109 108 105 98 93 93 93 92 93 94 92 88 83 76 67 62 58 55 51 46 40 34 31 31 32 34 36 37 38 39 39 38 37 36 36 35 35 33 31 29 28 28 28 30 31 34 36 38 40 41 39 38 37 37 36 33 28 24 23 24 26 29 29 28 26 26 27
108 102 94 87 88 94 100 103 106 104 97 91 91 97 101 101 103 107 110 111 112 111 106 98 93 93 95 95 95 94 91 86 80 71 63 59 57 56 52 47 40 34 30 30 31 34 38 40 40 40 40 39 37 35 34 33 33 33 31 29 28 28 29 31 34 36 37 38 40 41 40 39 39 38 38 37 36 31 25 21 20 24 28 29 28 27 26
Wind_Speed
39 40 42 43 44 45 46 47 47 47 47 46 46 48 49 49 50 50 50 52 53 53 54 55 56 55 54 54 55 56 57 58 56 54 54 53 52 50 48 47 46 46 46 45 43 43 42 41 41 40 40 40 40 40 42 44 45 45 44 43 43 42 42 42 40 40 42 43 44 45 45 46 47 46 46 46 46 47 47 47 48 49 48 48 49 50 50
40 41 43 44 44 44 44 43 43 43 42 42 41 42 43 43 44 44 44 45 47 49 50 51 53 54 55 56 56 57 58 58 56 54 54 53 53 52 51 49 48 48 48 47 46 45 44 43 42 42 41 40 40 40 41 44 46 47 48 47 46 46 45 42 41 42 42 43 44 44 44 45 45 45 46 46 46 47 47 48 49 49 48 49 50 50 51
41 41 42 41 40 39 38 38 38 37 38 38 38 38 39 39 39 39 39 39 41 43 45 45 47 49 52 54 56 57 58 58 57 55 54 53 54 54 53 52 51 50 50 49 47 47 46 45 44 43 42 41 40 41 42 43 44 46 48 49 49 48 47 44 44 45 45 44 44 45 45 46 46 46 46 47 46 47 47 48 49 49 49 49 50 51 52
39 38 37 36 35 34 33 33 34 34 35 36 36 36 35 35 35 36 36 35 36 37 39 40 41 43 46 49 52 55 57 59 58 56 55 54 54 54 55 54 54 53 52 50 49 48 48 47 46 44 44 42 41 41 42 43 43 44 47 50 51 50 49 48 47 48 48 47 46 47 47 47 47 46 47 47 46 46 46 47 48 48 48 49 50 51 52
34 33 32 31 31 31 31 31 31 32 33 34 34 34 32 31 31 32 33 32 32 33 34 35 37 39 41 43 46 50 54 57 59 58 56 56 56 56 56 56 55 55 53 52 51 50 49 48 47 46 45 44 43 42 42 43 43 43 45 49 51 51 52 51 51 52 51 50 49 50 50 49 49 49 49 48 48 48 47 48 49 48 48 50 52 52 52
28 28 28 28 29 29 30 29 29 29 30 32 32 32 30 28 27 27 28 28 29 29 30 31 33 35 37 39 42 44 48 53 57 58 58 57 57 57 57 56 56 56 55 54 52 51 50 49 48 47 46 46 45 44 43 43 43 44 45 47 49 52 54 55 55 55 54 54 53 53 52 52 52 52 52 52 52 52 52 52 51 51 51 53 54 54 54
24 24 25 26 27 27 28 28 28 28 29 30 30 30 29 27 25 23 23 24 25 25 25 27 29 30 32 35 37 40 43 47 52 55 57 58 58 58 58 57 57 56 56 55 54 52 51 50 49 48 48 47 46 45 45 44 44 45 47 47 48 51 54 56 57 57 57 57 57 56 56 56 55 54 55 55 56 56 56 55 55 55 55 55 56 57 57
21 22 23 24 24 25 26 26 27 27 28 29 29 29 29 27 24 22 20 20 20 20 20 21 23 25 27 30 33 36 39 42 45 49 53 56 58 59 59 58 58 57 56 55 54 53 52 51 51 50 50 49 48 48 47 46 46 46 47 48 49 50 52 55 57 58 59 60 60 59 58 59 58 58 58 58 58 58 58 57 57 57 58 58 59 59 59
19 20 21 21 22 23 25 26 27 27 27 28 28 28 27 25 23 20 18 16 15 15 16 17 20 22 24 27 30 33 35 37 40 43 47 51 55 58 60 59 59 58 57 55 55 54 53 53 52 52 52 51 50 50 49 48 48 47 47 48 49 51 52 53 54 56 58 60 61 60 60 61 61 60 60 60 60 61 60 60 59 59 60 60 61 61 61
17 18 19 20 21 23 24 25 26 27 27 27 27 26 25 23 21 18 15 13 12 12 12 14 17 20 22 25 27 30 32 35 37 40 43 46 51 55 59 60 60 59 58 57 57 55 55 54 54 53 53 53 52 52 51 50 50 49 48 48 50 51 52 53 53 55 56 58 59 60 61 61 61 62 62 62 63 63 63 62 62 61 62 62 62 62 63
16 17 19 20 22 23 24 25 25 26 26 26 26 26 24 22 20 17 14 11 9 8 9 11 14 17 20 22 24 27 29 32 35 37 40 43 47 51 55 59 60 61 60 59 58 57 57 56 55 55 55 54 54 54 53 53 52 51 50 50 51 51 52 53 54 54 56 56 58 59 58 56 58 61 62 63 64 65 64 64 64 63 63 63 63 63 64
16 17 19 21 22 24 24 25 25 25 25 25 25 24 23 21 19 17 14 10 7 6 6 8 10 13 17 19 22 24 26 29 32 34 37 40 43 46 50 54 58 60 61 61 60 59 59 57 56 56 56 56 56 56 55 55 54 54 53 54 54 54 54 54 54 54 55 55 56 56 54 54 57 59 60 61 62 64 64 64 64 64 64 64 64 64 64
16 18 19 21 22 23 24 25 25 25 25 25 24 23 22 21 20 17 14 11 7 5 3 5 7 10 13 16 19 21 23 25 28 30 33 36 39 41 45 49 53 56 59 60 61 61 60 59 58 58 58 58 58 58 57 57 57 57 57 57 57 56 56 55 54 54 54 54 55 54 54 56 58 57 57 58 59 61 62 63 63 63 64 64 65 65 65
17 18 19 20 21 22 23 23 23 24 24 25 24 23 22 21 20 18 16 14 10 6 4 2 4 7 10 13 17 20 22 24 25 27 30 32 34 37 40 43 46 50 54 57 59 61 61 61 61 61 60 60 60 59 59 59 59 60 60 59 59 58 57 56 55 55 54 54 55 55 55 56 57 57 58 58 58 59 59 60 61 61 62 63 64 64 65
17 18 19 20 21 21 22 22 22 22 23 24 24 24 22 21 21 19 17 15 13 9 7 4 0 3 7 10 13 17 21 23 25 27 29 30 31 33 35 36 39 42 46 51 55 58 60 61 62 63 63 63 63 62 61 62 62 62 62 62 61 61 60 59 58 58 57 57 57 56 56 56 57 59 60 59 59 59 59 59 59 59 59 60 61 62 62
16 18 19 20 21 21 22 22 22 22 23 23 24 23 22 22 21 20 18 17 15 13 10 7 4 1 2 6 9 13 17 20 24 27 29 31 32 34 35 36 37 39 42 46 49 53 56 59 61 63 64 65 65 65 64 64 64 64 64 64 64 64 63 63 62 61 61 61 60 60 59 58 59 61 61 61 61 61 61 60 59 58 59 60 60 61 61
16 17 19 20 20 21 22 22 22 23 23 23 23 23 24 23 22 21 20 19 17 15 13 10 8 5 2 1 5 8 12 16 19 23 26 29 32 35 37 39 41 43 45 47 49 51 54 56 59 62 64 65 67 67 67 67 67 67 67 67 67 67 67 67 66 65 64 65 64 64 62 61 62 63 63 63 64 64 64 63 60 60 62 63 63 63 63
16 18 19 20 20 21 21 21 22 22 23 23 23 24 25 25 24 24 23 21 19 17 15 13 11 8 6 3 2 4 7 11 14 18 21 25 28 32 35 38 41 44 47 49 51 53 55 57 59 62 64 65 67 68 69 69 69 69 70 70 70 70 70 70 69 67 68 68 68 67 66 65 65 66 66 66 67 67 67 65 62 63 66 66 65 65 65
16 18 19 20 20 20 20 21 22 22 23 24 24 25 25 25 25 25 24 22 21 19 17 16 14 12 9 7 4 3 4 7 10 13 16 20 23 27 31 34 38 41 44 47 49 52 54 57 59 61 64 66 67 69 70 71 71 72 72 73 73 73 73 73 72 71 71 71 71 70 69 67 67 68 68 69 69 69 69 67 66 67 69 68 68 68 68
16 17 18 19 19 19 19 20 21 22 23 24 24 24 24 24 24 24 23 23 22 21 19 18 16 14 12 10 8 6 6 6 8 10 12 15 18 22 26 30 34 38 41 44 46 49 51 53 55 58 61 63 65 67 69 71 72 73 74 75 75 75 75 75 75 74 74 74 74 73 71 70 70 71 71 71 71 71 70 70 70 70 71 71 71 71 71
16 17 18 18 17 17 18 19 20 21 22 23 24 24 25 25 24 24 23 23 22 21 20 19 17 16 15 13 12 10 9 8 8 10 11 13 16 18 21 25 29 33 37 40 43 46 48 49 51 53 56 58 61 63 65 67 69 71 72 74 75 76 77 77 77 76 76 77 77 76 74 74 74 74 74 74 74 73 73 73 73 73 73 74 74 74 74
16 17 17 17 16 16 17 19 20 21 22 23 24 24 25 25 25 25 25 24 23 21 20 19 18 16 15 15 14 13 12 11 11 11 12 13 15 17 19 22 25 28 32 35 39 42 44 47 48 50 51 53 55 58 60 62 64 66 68 71 72 74 75 76 76 76 77 77 77 77 76 76 76 76 76 76 76 76 76 76 76 76 76 76 76 76 76
16 16 16 15 14 15 16 18 20 22 23 24 25 25 25 25 26 26 26 25 25 23 22 21 19 18 16 15 15 14 14 14 14 14 14 14 15 16 18 21 23 25 28 31 34 37 40 42 44 46 48 50 51 53 55 57 59 61 64 66 68 70 71 73 73 74 74 75 76 75 76 76 77 77 77 77 77 77 77 78 78 78 78 78 78 78 79
15 15 15 14 14 14 16 17 20 21 23 25 25 25 26 26 26 27 27 27 27 26 25 24 23 21 19 17 16 15 15 15 15 16 16 17 17 17 18 20 22 24 26 28 31 33 35 37 39 41 43 45 47 49 51 53 54 56 59 61 63 66 67 69 70 71 72 72 73 73 74 74 75 76 76 77 77 78 78 78 79 79 79 79 80 80 80
14 14 14 13 13 14 15 17 19 21 23 25 26 26 27 27 27 28 28 28 28 28 28 27 26 25 23 21 19 18 16 16 16 16 17 18 19 20 20 20 21 23 25 27 29 31 33 35 36 38 39 41 42 44 46 48 50 52 54 56 59 61 63 65 67 68 69 70 71 71 72 72 73 73 74 75 76 76 77 78 78 78 79 79 80 80 81
13 13 13 12 12 13 15 17 20 22 24 25 26 27 28 28 28 28 28 29 29 29 29 29 29 28 27 25 24 22 20 19 18 18 18 18 19 20 21 22 22 23 24 26 27 29 31 33 34 36 37 38 39 41 42 43 45 47 49 51 54 56 59 61 63 64 66 67 68 69 70 70 71 71 72 73 73 74 75 75 76 76 77 77 78 79 79
12 12 12 11 11 13 15 17 19 22 24 26 27 28 28 29 29 29 29 30 30 30 31 31 31 30 30 29 27 25 24 23 21 20 20 20 19 20 21 22 23 24 24 25 26 28 29 31 32 34 35 36 37 38 40 41 42 43 45 47 48 51 53 55 57 59 61 63 64 66 67 67 68 69 70 70 71 72 72 73 73 74 75 75 76 77 78
12 11 11 11 12 13 15 17 19 22 24 26 27 28 29 30 30 30 31 31 31 31 32 32 33 33 32 31 30 29 28 27 25 24 23 22 22 21 21 21 22 23 24 25 26 27 28 29 30 32 33 34 35 36 38 39 41 42 43 44 45 46 48 49 51 53 55 57 59 61 62 64 65 66 68 69 69 70 71 71 72 72 73 73 74 74 75
11 11 11 11 12 13 15 17 19 22 24 25 27 28 29 30 31 31 32 32 32 32 33 34 34 34 34 34 33 32 31 30 29 27 26 25 24 23 22 22 22 22 23 24 25 26 27 28 29 30 31 32 34 35 36 38 39 40 41 42 43 44 45 45 47 48 50 51 53 55 56 58 60 62 63 65 66 67 68 68 69 70 70 71 71 72 73
12 11 10 11 12 14 16 18 20 22 24 25 26 27 28 29 31 32 32 33 33 34 34 35 36 36 36 36 36 35 34 33 32 30 28 27 26 25 24 23 23 22 23 23 24 25 26 27 28 29 30 31 32 34 35 36 37 38 39 40 41 42 43 44 45 46 47 48 49 50 51 53 54 56 57 58 59 60 62 63 64 65 66 67 67 68 68
12 11 10 10 12 14 16 18 20 22 24 26 26 27 28 29 31 32 33 34 34 35 36 37 38 38 38 38 38 37 37 36 34 32 30 29 28 27 26 24 23 22 22 22 23 24 24 25 26 27 28 29 30 32 33 34 36 37 37 38 39 40 41 42 43 44 45 46 47 47 48 49 50 51 52 53 54 55 56 58 59 60 60 61 62 62 63
12 11 10 10 12 14 16 18 20 22 24 26 26 27 28 29 31 32 34 34 35 36 37 38 39 39 39 40 39 39 39 38 36 34 32 31 30 29 28 26 24 23 22 22 22 23 23 24 24 25 26 27 28 30 31 32 34 35 35 36 37 38 39 40 41 42 43 44 44 45 46 47 47 48 49 49 50 51 52 53 54 55 56 57 57 58 59
12 11 10 10 11 13 16 19 21 23 25 26 27 27 29 30 32 33 34 35 36 37 38 39 40 41 41 41 41 41 41 40 38 35 34 32 31 30 29 28 26 24 22 22 22 22 22 22 22 23 24 25 26 27 28 30 31 32 33 34 35 36 37 38 39 40 40 41 42 43 44 44 45 45 46 47 48 48 49 50 50 51 52 52 53 54 55
12 11 11 11 12 14 17 19 22 24 25 26 27 28 29 30 32 34 35 36 36 37 39 40 41 42 42 43 43 43 43 41 39 37 35 34 33 32 30 29 28 25 23 22 21 21 21 21 21 22 23 23 24 24 26 28 29 30 31 32 33 33 34 35 36 37 38 39 39 40 41 42 43 43 44 45 46 46 47 47 48 48 49 49 50 50 51
11 11 12 12 13 15 18 20 22 24 26 26 27 28 29 31 33 35 36 37 37 38 40 41 42 43 44 44 45 45 44 43 41 39 36 35 34 33 31 30 28 26 24 22 21 20 20 20 20 21 21 21 22 22 24 25 27 28 29 29 30 30 31 32 33 34 35 36 37 38 39 40 41 42 43 43 44 44 45 45 46 46 46 47 47 48 48
12 12 13 14 15 17 19 21 23 25 26 27 28 29 30 32 34 35 37 38 39 39 40 42 43 44 45 46 46 46 45 44 43 41 38 36 35 34 33 31 29 27 25 23 21 20 19 19 19 20 20 20 20 21 22 24 25 25 26 26 27 27 28 29 30 31 32 34 35 36 37 38 39 40 41 41 42 43 43 44 44 45 45 45 45 46 47
13 13 14 15 17 18 20 22 25 26 27 28 28 30 31 33 34 36 38 39 40 40 41 43 45 46 46 47 47 46 46 45 44 42 39 36 35 35 34 32 29 27 25 23 21 20 19 18 18 19 19 19 20 20 21 22 23 24 24 25 25 25 26 27 28 28 29 31 32 34 35 36 37 38 39 39 40 41 41 42 43 43 43 43 44 44 45
13 14 15 16 18 20 22 24 26 28 29 29 29 31 32 34 35 37 39 40 41 41 43 44 46 46 47 47 47 46 46 45 44 43 40 36 34 35 35 33 30 28 26 23 21 20 19 18 18 19 19 19 20 20 20 21 22 23 24 24 25 25 25 26 26 27 27 29 30 32 33 33 34 35 36 37 38 39 39 40 41 41 41 41 42 43 44
13 14 15 17 19 21 23 25 27 29 30 30 31 32 34 35 36 38 40 41 42 43 44 45 46 46 46 47 47 46 46 45 44 43 41 38 35 34 34 33 31 29 27 24 22 20 19 18 17 18 19 20 21 21 21 21 22 23 24 24 25 25 25 25 26 26 27 28 29 30 31 32 33 33 34 35 35 36 37 38 38 38 39 40 40 41 42
14 15 16 18 20 22 24 26 28 29 30 31 32 34 35 36 38 40 41 42 43 44 45 46 46 46 46 46 46 46 46 46 45 44 42 39 36 35 34 33 32 29 27 25 23 21 19 17 17 17 18 20 21 22 22 22 23 23 24 25 25 25 25 25 25 25 25 27 28 29 30 31 31 32 32 32 33 33 34 35 36 36 37 37 38 39 39
16 16 17 20 22 23 25 27 29 30 31 32 33 35 36 38 39 41 42 43 44 45 45 45 45 46 46 46 46 46 46 45 45 44 43 41 38 35 33 32 31 30 28 25 24 22 19 17 16 17 18 19 21 21 22 22 23 24 25 25 25 25 24 24 23 24 24 25 26 27 28 29 30 30 31 31 31 32 32 33 33 34 35 36 36 37 37
17 17 19 21 23 25 26 28 30 31 32 34 35 36 38 39 40 42 43 44 44 45 45 45 45 46 46 46 46 46 45 45 44 44 43 42 39 36 33 31 29 29 28 26 25 23 21 18 16 17 18 20 20 20 21 22 22 23 24 25 25 25 24 24 23 23 24 24 25 25 26 27 28 28 29 29 30 30 31 31 32 32 33 34 35 35 35
17 18 20 22 24 26 27 29 31 32 34 35 36 37 39 40 41 43 44 45 45 45 45 44 45 46 47 47 47 46 45 45 44 44 43 43 40 38 35 32 29 27 26 26 25 24 22 20 17 16 18 19 20 20 20 22 22 23 24 25 25 25 24 24 24 24 24 24 24 24 25 25 26 27 27 28 28 29 29 30 30 31 31 32 33 33 33
18 19 21 23 25 26 28 31 33 34 35 36 37 38 40 41 42 43 45 45 45 45 44 45 46 48 48 47 47 46 45 45 44 43 42 42 40 37 36 34 32 28 26 25 25 24 22 20 18 16 17 19 20 20 21 22 23 24 24 25 25 25 24 24 24 24 24 24 24 24 24 24 25 25 26 26 27 27 28 28 29 29 30 31 31 31 31
19 20 22 23 25 27 29 32 34 35 36 37 38 39 41 42 43 44 45 45 45 44 45 45 47 49 49 49 47 46 46 45 44 42 42 41 40 39 37 35 33 30 27 25 25 24 21 19 17 17 18 19 20 21 22 22 23 24 25 25 25 25 24 24 23 24 24 24 24 24 24 24 24 25 25 25 25 26 27 27 28 28 29 29 30 30 30
20 21 23 24 26 29 31 33 35 36 37 38 39 40 41 43 44 44 45 44 44 44 45 47 49 50 51 50 48 47 46 45 43 42 41 41 41 40 39 36 34 31 28 25 25 25 22 19 17 17 19 20 21 21 22 23 23 24 24 25 25 25 25 24 23 24 24 24 24 24 23 23 24 24 24 24 25 25 26 27 27 27 28 28 29 29 29
22 23 24 26 27 30 32 34 36 37 38 39 39 40 42 43 44 44 44 44 44 44 46 48 50 51 51 50 48 46 46 45 44 43 42 41 41 40 40 38 36 33 29 26 24 25 24 23 20 18 18 20 21 23 23 23 24 24 24 25 25 25 25 25 24 24 24 25 24 24 23 23 23 24 24 24 24 25 25 26 26 26 27 27 28 28 28
23 24 26 27 28 30 33 35 36 38 39 39 40 41 42 43 44 44 44 43 44 45 47 49 51 52 52 50 48 47 46 46 45 44 43 41 40 39 39 38 37 36 32 28 25 23 24 25 24 22 20 20 22 24 24 24 24 24 24 25 25 26 26 25 24 24 24 25 25 24 24 24 23 24 24 24 23 24 25 25 26 26 26 27 27 27 27
25 26 27 28 29 31 34 35 37 38 39 40 40 42 43 44 44 44 44 43 44 45 47 50 51 52 52 51 49 47 47 46 46 45 43 41 40 39 38 37 36 36 35 32 29 26 24 24 25 25 24 23 23 24 25 25 25 25 25 25 26 27 27 27 26 25 24 25 25 25 24 24 24 24 24 23 23 24 24 25 25 26 26 26 26 27 27
26 27 28 29 31 32 34 36 37 38 39 40 41 43 44 44 44 44 43 43 44 46 49 51 52 53 53 51 49 47 47 46 46 45 44 42 40 39 38 37 36 34 34 33 32 30 28 26 25 26 26 25 24 24 25 25 25 26 25 25 26 27 28 28 27 26 25 25 25 25 25 24 24 24 24 24 24 24 25 25 25 25 25 26 26 27 27
28 29 29 30 32 33 35 36 37 38 39 40 42 43 44 45 45 44 44 45 46 48 50 52 53 54 53 52 49 47 46 46 46 45 44 43 41 40 39 38 37 35 33 32 31 31 30 28 27 27 27 27 26 25 25 25 25 26 26 26 26 27 28 28 28 28 26 25 25 25 25 25 24 24 24 24 24 24 25 25 25 25 25 25 26 26 27
30 30 31 32 33 34 35 36 37 38 39 40 42 43 43 44 44 44 45 45 47 49 50 52 53 54 53 52 50 48 46 46 45 45 44 42 41 40 40 39 38 36 34 32 31 30 29 29 29 28 28 28 27 27 26 25 25 25 26 26 26 26 27 28 29 29 28 26 25 25 25 25 25 24 24 24 24 25 25 26 25 25 25 25 25 26 26
Wind_Direction
290 290 290 289 288 287 287 286 286 285 283 281 280 278 276 274 272 270 267 265 263 260 257 254 253 250 247 244 243 242 242 242 241 240 240 240 240 240 238 236 235 235 237 237 237 237 238 238 238 238 238 237 235 234 234 233 232 233 235 236 238 238 238 238 239 238 238 237 238 238 238 239 239 239 239 240 240 241 241 241 241 241 242 241 242 242 243
294 293 292 291 290 290 290 290 289 289 288 287 284 282 280 278 276 273 270 267 264 262 258 255 252 250 247 244 243 242 241 242 241 239 238 238 238 238 237 236 234 234 235 236 236 236 237 237 238 238 238 238 236 234 234 234 233 232 233 234 236 237 237 237 238 239 238 238 239 239 240 241 241 240 240 239 239 239 239 240 241 242 241 241 242 243 244
296 295 293 293 293 293 293 293 293 292 292 291 289 287 285 283 281 277 273 268 264 262 259 256 253 249 247 244 242 240 240 240 240 238 236 236 236 236 235 234 234 233 233 234 234 235 236 236 237 238 238 238 238 236 235 235 235 234 234 235 236 238 239 238 238 239 239 238 239 239 240 240 240 240 240 240 239 239 239 240 241 242 242 242 243 243 244
296 295 294 294 295 296 296 296 297 296 296 294 293 291 289 288 285 282 277 272 266 262 259 256 253 249 246 244 241 239 238 238 238 237 235 234 234 234 234 234 233 233 232 233 233 234 235 236 236 237 238 238 238 237 236 236 235 235 234 235 236 237 239 239 239 239 239 239 239 240 240 240 241 242 242 243 242 242 242 243 243 244 245 245 245 244 245
295 295 296 298 299 300 300 300 301 301 300 299 298 296 295 292 288 284 280 276 270 264 259 255 251 248 245 242 240 238 236 236 236 235 233 232 232 232 233 233 233 233 232 232 232 233 234 236 236 237 238 238 238 238 238 237 237 236 235 236 236 237 238 239 240 240 240 240 240 240 241 241 241 242 243 244 244 244 244 244 244 244 245 245 246 246 246
296 298 300 302 303 304 305 305 305 305 304 304 303 303 302 300 294 288 283 278 272 266 261 256 251 246 243 240 238 237 235 234 233 233 231 230 230 231 232 232 232 232 232 232 232 232 233 235 236 237 238 238 238 238 239 238 238 237 236 236 236 236 237 238 239 240 240 240 240 240 241 241 241 241 241 242 242 242 242 243 243 243 243 244 245 246 246
300 302 304 305 307 309 310 312 312 312 312 312 311 311 311 310 305 298 289 281 275 269 263 258 253 248 243 239 237 235 235 234 232 232 231 229 229 229 230 231 232 232 232 232 232 232 232 234 235 237 238 238 238 238 238 239 239 238 237 236 235 236 236 238 239 240 240 241 240 240 240 242 241 241 241 242 242 243 243 243 243 243 243 244 245 246 247
304 306 307 310 313 315 317 319 320 320 320 319 319 319 319 318 315 310 300 290 281 272 264 257 253 247 242 238 235 233 233 233 232 232 231 229 229 229 229 230 231 232 232 232 233 232 233 233 234 236 237 238 239 239 238 239 239 239 239 239 238 237 237 238 239 240 241 242 242 241 241 242 242 242 242 243 243 244 244 245 245 245 246 246 247 248 248
307 310 313 316 319 322 325 326 327 327 326 326 325 325 325 324 323 318 311 300 288 275 263 252 245 240 235 233 231 230 230 230 230 231 230 230 229 228 228 229 230 231 231 232 233 232 232 233 234 235 237 238 239 240 239 239 239 240 241 241 241 240 240 240 240 240 241 242 244 244 243 243 244 244 244 244 245 245 245 246 246 246 247 247 248 249 250
312 316 319 322 327 330 332 332 332 332 332 331 331 331 332 333 332 329 322 312 296 278 261 247 239 234 229 227 227 227 227 226 226 227 228 228 228 228 228 228 229 230 230 231 232 232 232 232 233 234 235 237 238 239 240 240 240 240 241 242 243 243 244 244 244 243 243 244 245 245 245 245 245 246 246 246 247 247 247 247 247 248 248 249 249 251 252
318 322 327 331 334 336 336 336 336 336 337 337 338 339 341 341 341 340 336 327 308 282 261 246 237 231 226 223 222 223 224 224 225 226 226 227 227 228 228 228 229 229 230 230 231 232 232 232 233 234 235 236 237 238 240 241 241 241 241 242 243 244 245 245 246 246 246 246 247 248 249 249 248 247 247 248 249 249 249 249 250 250 250 251 251 252 254
325 330 335 338 340 340 340 340 341 341 342 343 345 345 346 349 351 352 350 344 328 298 266 242 230 226 222 219 217 219 221 223 224 225 226 227 228 228 229 229 229 230 230 230 231 231 232 232 233 234 235 235 236 237 238 240 241 241 241 241 241 242 243 244 245 247 248 250 251 252 253 253 251 250 249 249 250 251 252 252 252 252 252 252 253 253 254
331 337 341 344 344 344 344 345 346 346 347 348 349 351 354 357 0 1 2 2 357 339 295 245 225 219 217 214 212 214 218 221 223 225 227 229 229 230 230 231 231 231 232 232 232 232 232 233 233 234 235 235 236 236 237 238 240 241 242 242 242 243 244 245 246 247 249 251 252 253 253 253 253 253 253 252 252 252 253 253 253 252 253 253 254 254 254
337 342 346 348 348 348 348 349 351 352 352 353 354 357 1 3 5 9 12 13 13 12 3 291 229 218 215 212 210 209 211 215 220 224 228 230 231 231 232 232 233 233 233 233 234 234 234 234 234 234 235 235 236 236 237 238 239 240 242 243 244 244 245 246 247 247 248 249 250 251 252 252 254 255 254 254 253 253 253 253 253 253 253 253 254 254 255
342 345 348 350 351 352 353 355 357 359 1 1 1 2 4 6 10 14 17 19 21 23 25 22 309 217 215 215 213 212 212 213 216 219 223 227 228 229 231 232 234 236 236 236 236 235 235 235 235 235 235 236 236 236 236 237 238 239 241 242 244 244 245 245 246 246 247 248 248 249 250 251 253 253 254 254 253 253 253 253 254 254 254 254 253 253 254
344 347 349 351 353 355 359 2 4 6 8 10 9 8 8 10 13 16 19 22 26 27 27 28 28 28 217 216 215 216 217 217 218 220 222 223 224 224 224 224 226 229 231 232 234 235 236 236 236 237 237 237 237 237 237 237 238 239 240 241 242 243 244 244 244 245 246 247 247 248 248 249 250 252 253 254 254 254 253 253 253 255 255 255 255 254 254
345 348 350 352 355 359 4 8 11 14 15 16 17 16 15 14 15 17 19 22 25 27 29 30 29 27 15 261 227 221 222 222 223 225 226 227 227 226 225 224 222 223 224 224 226 229 231 233 235 236 237 238 238 238 238 238 238 239 240 241 242 243 244 244 244 245 246 247 247 248 248 248 249 251 252 253 254 254 254 254 254 254 255 255 256 256 257
345 349 350 353 357 2 8 13 17 20 20 21 23 24 23 21 19 19 19 20 20 22 24 25 25 24 20 5 308 252 237 232 230 230 230 232 232 232 231 230 229 228 227 226 226 226 227 228 230 231 233 235 237 238 238 239 239 239 240 241 242 242 243 245 245 245 246 247 248 248 249 249 250 252 253 253 254 255 256 256 256 255 255 255 255 256 257
346 349 351 354 359 5 11 16 20 23 24 24 26 27 27 27 26 23 20 18 17 18 19 19 18 16 13 6 348 311 273 253 245 240 237 236 235 235 235 235 234 234 234 233 233 232 231 231 231 231 231 232 233 235 236 237 238 239 240 241 242 242 243 244 245 246 246 247 248 248 249 249 251 252 253 254 255 256 257 257 257 256 257 257 257 257 257
346 350 352 356 1 8 15 19 22 24 25 25 25 26 26 28 29 28 25 22 19 18 16 14 12 10 6 1 352 337 313 288 271 259 251 246 242 240 239 238 238 238 238 238 239 239 239 238 238 237 237 236 236 236 236 236 237 237 238 240 241 242 243 244 245 245 246 247 248 248 249 249 250 251 251 252 253 255 256 256 256 256 257 258 258 258 258
347 351 354 358 4 12 17 20 22 23 23 24 24 23 23 24 25 25 25 25 23 21 18 13 10 7 2 357 350 341 328 313 296 280 269 260 254 249 246 244 242 241 241 242 242 243 243 243 243 242 242 242 242 242 242 241 240 240 240 240 241 242 243 243 244 245 246 246 248 249 249 249 249 250 251 251 252 253 253 254 255 255 256 256 257 258 258
350 354 357 1 9 16 19 20 20 20 21 21 21 22 21 20 20 21 20 20 21 20 19 16 12 7 2 355 348 340 331 321 309 296 284 273 265 258 253 250 247 245 245 245 244 245 245 245 246 245 245 245 245 245 245 246 245 245 245 245 244 245 245 246 246 246 247 247 248 248 249 249 250 251 251 252 252 253 253 254 254 255 255 256 256 257 258
354 357 1 6 14 20 21 20 18 17 18 18 18 19 19 18 17 17 16 16 15 14 14 14 12 8 3 357 350 342 333 324 315 305 295 285 276 268 261 256 253 250 248 248 247 248 247 247 247 247 247 247 246 246 246 246 246 247 247 247 247 248 248 248 249 248 249 249 250 250 250 250 251 251 252 252 253 253 253 254 254 255 255 255 256 257 257
356 1 5 10 16 21 22 20 17 16 16 16 16 15 16 15 15 14 13 13 11 10 9 8 8 6 4 359 354 346 337 328 320 312 304 296 288 280 272 265 260 255 252 250 249 249 249 250 250 249 249 249 248 247 247 247 247 247 247 247 248 248 248 249 249 249 249 250 250 251 251 251 251 251 252 252 253 253 253 253 254 254 254 255 255 256 257
357 2 7 12 18 21 19 17 15 15 15 15 15 14 13 13 13 12 11 10 9 8 6 5 4 3 2 360 356 350 342 334 325 317 310 303 297 291 284 277 270 264 259 255 252 250 249 249 250 251 251 251 251 249 249 248 247 247 247 247 247 248 248 248 249 249 250 250 250 250 251 251 251 251 252 252 252 253 253 254 254 254 255 255 255 256 256
355 360 5 11 16 17 15 13 12 12 13 14 14 13 12 12 11 10 9 7 6 6 4 3 2 1 360 358 356 352 346 339 331 322 314 306 301 296 291 286 280 274 268 263 259 255 252 250 249 249 250 251 251 252 251 251 250 248 247 247 246 247 247 248 248 249 249 250 250 251 251 251 251 252 252 252 253 253 254 254 255 255 256 256 257 257 257
350 354 360 5 9 10 10 10 9 10 11 11 11 11 11 10 9 8 7 5 4 3 2 1 359 359 358 356 354 352 348 342 336 328 321 313 306 300 295 290 286 282 277 272 267 262 259 255 253 251 250 250 250 251 252 252 252 252 250 249 248 248 248 248 249 249 250 251 251 252 252 253 253 254 254 255 255 255 256 256 256 256 256 257 257 257 258
343 347 350 355 360 3 5 6 6 8 9 9 9 8 8 7 7 5 4 3 1 0 359 359 358 357 356 354 352 350 348 344 339 333 327 321 315 309 302 296 290 286 282 278 274 269 265 261 258 255 253 252 251 251 251 251 252 252 253 253 252 252 251 251 250 250 250 250 251 252 252 253 254 254 255 255 256 256 257 257 257 258 258 258 258 258 258
337 339 341 344 350 354 359 2 3 5 6 6 6 5 5 4 4 2 1 360 359 358 357 356 356 355 354 352 351 349 347 344 341 336 330 325 320 316 310 304 297 291 286 282 278 274 270 266 263 259 257 255 254 253 252 252 252 253 253 253 254 254 254 254 253 253 252 252 251 251 251 251 252 253 253 254 255 256 257 258 259 259 259 260 260 260 260
329 328 330 334 339 345 352 357 359 359 0 2 3 3 2 2 1 359 358 357 356 356 355 355 354 353 352 351 349 348 346 344 341 337 333 329 324 321 316 311 305 299 293 287 282 278 274 271 267 264 261 258 256 255 255 254 254 254 254 254 254 254 254 254 254 254 254 254 254 254 254 253 253 253 254 254 255 256 256 257 258 258 259 259 260 260 261
320 319 319 324 332 339 346 351 354 355 356 359 0 1 0 360 358 357 356 355 354 354 354 354 353 352 351 350 348 347 345 343 342 339 335 331 328 324 321 317 312 305 298 292 287 282 279 275 272 269 266 263 260 259 258 257 257 257 257 256 256 256 255 254 254 254 254 255 255 255 256 256 256 256 256 256 256 256 257 257 257 258 259 259 260 261 261
315 314 312 317 326 336 342 346 349 352 354 356 358 358 358 357 356 354 353 353 353 353 353 353 352 351 350 349 347 345 344 343 342 340 337 333 330 327 324 321 316 311 304 298 292 287 283 279 276 272 270 267 265 263 261 260 259 260 260 259 259 258 257 257 256 256 256 256 256 256 256 256 256 256 257 257 257 257 257 258 258 259 259 260 260 261 261
311 310 309 315 325 335 340 343 347 350 352 354 355 356 356 355 353 352 351 351 352 351 351 352 351 350 349 348 346 345 343 342 341 340 338 335 331 328 326 323 319 315 309 303 297 292 288 284 280 276 273 270 268 266 264 263 262 262 262 262 261 261 260 260 259 258 258 258 257 257 257 257 257 257 257 257 257 257 257 258 258 259 259 260 260 261 262
307 307 310 316 325 333 338 342 345 348 350 351 352 353 353 352 351 349 349 349 350 349 349 350 350 349 348 347 345 344 342 341 340 340 339 336 332 329 327 324 321 318 313 307 301 297 293 289 285 280 276 273 270 268 266 265 264 264 264 263 263 263 263 262 262 261 261 260 260 259 259 259 259 259 258 258 258 258 258 258 259 259 259 260 260 261 262
303 306 310 316 324 331 336 339 342 345 346 348 348 349 349 349 348 347 346 347 348 348 347 348 348 347 346 345 344 343 341 340 339 340 339 336 332 329 327 325 323 320 315 310 306 301 297 292 287 284 281 278 275 272 269 267 267 266 266 266 266 265 264 264 263 262 262 262 261 261 261 261 261 261 261 261 261 260 260 260 260 260 261 261 262 263 263
298 302 309 316 323 328 333 336 340 342 343 344 345 345 346 346 345 344 345 345 345 345 345 345 345 345 345 344 343 341 340 339 339 339 339 337 333 329 327 326 324 321 317 313 309 305 299 294 290 287 284 281 278 275 273 272 272 272 272 272 271 270 268 266 265 264 264 264 263 263 263 263 263 262 262 262 262 262 262 262 262 263 263 263 264 264 265
291 298 306 314 320 325 330 334 337 339 340 341 341 341 342 343 343 343 343 343 343 343 344 343 343 343 343 342 341 340 339 338 338 337 338 337 333 329 327 326 324 322 319 316 312 307 301 296 293 290 287 283 279 277 275 275 276 276 275 274 273 272 270 269 267 267 266 266 266 265 265 265 264 264 264 264 263 263 263 263 263 264 264 264 265 265 265
289 296 305 313 318 322 327 332 334 335 336 337 338 338 339 340 341 341 341 341 341 342 342 342 342 342 341 340 340 339 338 337 336 336 337 337 334 330 327 325 325 323 321 318 315 309 304 299 296 292 289 286 283 280 278 277 277 276 276 275 274 272 270 269 268 268 267 267 267 267 266 266 266 265 265 265 265 264 264 264 264 264 264 265 265 265 266
292 299 308 313 317 321 326 330 332 332 333 334 335 335 337 338 339 339 340 340 340 340 341 341 340 340 340 340 339 338 337 336 336 336 336 336 336 333 329 326 325 324 322 320 317 311 307 304 299 295 292 290 288 286 285 283 281 279 278 277 276 275 274 272 271 270 269 268 267 267 267 267 266 266 266 266 265 265 264 264 264 264 264 264 264 265 266
293 301 309 313 316 320 325 328 329 330 331 332 332 333 335 336 337 338 338 338 339 339 340 339 339 339 340 341 340 338 336 336 335 335 336 336 336 335 332 328 326 325 324 322 318 314 311 308 303 298 294 292 290 290 289 288 286 285 283 282 280 279 278 276 275 273 271 269 268 268 267 267 267 267 266 266 266 266 265 264 264 263 263 263 264 265 266
291 299 307 312 315 319 324 326 327 328 329 330 331 332 333 334 336 336 337 337 338 338 338 338 339 340 341 341 340 338 336 335 335 335 335 335 336 335 333 330 328 326 324 322 319 316 314 312 308 302 296 292 290 290 290 289 288 288 287 286 285 284 282 281 279 277 274 272 270 270 269 269 268 268 267 267 267 266 266 265 264 263 263 263 264 265 266
289 297 305 310 313 317 321 323 324 326 327 328 330 331 332 333 335 336 336 336 337 337 337 338 339 340 341 341 340 337 335 334 335 335 334 334 335 335 333 331 330 327 324 321 319 317 317 316 313 306 299 294 292 291 291 291 290 290 290 289 288 288 287 286 284 281 278 276 274 272 271 271 270 269 269 268 268 267 266 265 264 263 263 263 263 264 265
287 295 303 307 311 314 318 320 322 324 325 327 329 330 331 332 334 335 335 335 336 336 337 338 339 340 341 341 339 337 335 334 334 335 334 333 333 334 333 332 331 328 325 321 318 318 319 320 316 307 299 296 294 293 293 293 293 292 291 290 289 289 288 288 286 284 282 280 278 277 275 274 273 271 270 269 268 268 267 266 265 263 263 262 263 263 264
287 294 301 305 308 311 315 318 320 322 324 326 328 329 330 331 333 334 334 335 335 336 337 338 338 339 340 340 339 337 335 334 334 334 333 331 332 334 334 333 331 329 326 321 318 317 320 321 317 307 299 297 297 296 296 295 295 294 293 291 289 288 287 287 286 285 284 283 282 281 280 278 276 275 273 271 270 269 268 266 265 264 263 263 263 264 264
288 294 300 304 306 308 312 316 318 320 323 325 327 328 329 331 333 333 333 334 335 335 336 337 338 338 339 340 339 337 334 333 333 333 333 332 332 334 334 332 330 328 326 322 318 317 319 320 316 308 302 300 299 298 297 296 295 294 293 291 289 288 287 286 285 285 284 284 284 283 282 281 280 278 276 274 272 270 269 267 266 265 264 264 264 264 264
289 295 299 303 304 307 311 314 317 319 322 324 326 327 328 330 332 332 332 333 334 334 335 336 337 337 338 339 338 336 334 332 332 333 334 334 333 333 332 331 329 327 326 323 318 316 316 317 313 307 303 301 299 297 296 295 294 293 292 290 288 287 286 285 285 285 285 285 285 285 284 284 282 280 279 277 275 273 271 269 268 266 265 265 265 265 266
290 295 298 301 303 306 310 313 316 318 320 323 325 326 327 329 330 331 332 332 333 334 334 335 336 336 337 337 337 335 333 332 333 335 335 334 333 332 330 330 328 326 325 322 318 315 315 314 312 308 305 301 298 296 295 294 294 293 292 290 288 286 286 286 286 286 286 287 287 287 287 286 284 282 281 279 277 275 273 272 270 268 267 267 266 267 267
289 294 297 299 302 305 308 312 314 317 319 322 324 325 327 328 329 330 331 331 332 333 333 334 335 335 336 336 336 334 333 334 335 335 334 333 332 331 330 329 327 326 324 321 318 314 312 311 310 309 306 302 298 296 296 296 295 294 292 291 289 287 286 286 286 286 287 287 288 289 289 288 287 286 284 282 280 278 276 274 273 271 269 268 268 268 268
288 292 295 298 301 304 307 310 313 315 318 321 323 324 326 327 328 329 330 330 331 331 332 333 334 335 335 336 336 335 334 335 335 334 332 332 331 330 328 328 327 325 323 320 317 314 311 309 308 307 306 303 300 298 298 298 297 295 293 291 289 287 287 287 287 287 287 287 288 289 289 289 289 288 287 285 283 280 278 277 275 273 271 270 269 268 268
286 290 293 297 301 304 307 310 312 315 317 320 322 324 325 327 328 328 329 329 330 330 331 333 334 335 336 336 336 335 334 333 333 332 331 331 331 330 328 327 326 325 322 319 315 314 312 310 308 306 305 303 302 300 299 299 298 296 294 291 289 287 286 286 287 287 287 287 288 288 288 289 289 289 288 287 285 282 280 278 277 275 274 271 269 268 268
284 289 293 297 301 304 306 308 311 314 316 319 322 324 325 327 328 328 328 328 328 329 331 333 334 335 335 335 335 334 332 332 331 331 330 331 331 330 329 327 325 324 322 318 314 312 311 310 308 306 305 304 304 302 301 300 299 297 295 292 289 286 285 286 286 286 286 286 286 287 287 288 288 288 288 288 287 285 282 280 278 277 276 274 271 269 268
284 289 294 298 300 303 305 307 310 313 315 318 321 323 325 326 327 328 327 327 327 328 329 331 333 333 334 334 333 331 330 330 330 329 329 330 331 331 329 327 325 323 321 318 315 311 309 308 306 305 305 305 304 304 303 302 300 298 296 293 289 286 285 284 285 285 286 286 286 285 286 287 287 287 287 288 288 287 284 282 280 279 278 276 273 271 269